sat.trackr.live / text

‹ back to catalog

STARLINK-3532

NORAD 51727 · 2022-016P

PAYLOAD ACTIVE UNKNOWN

§ Identity

Operator
Country
US
Launch date
2022-02-21
Launch site
AFETR
Launch vehicle
Mass (kg)
RCS (m²)

Purposes: comms

External: N2YO · Heavens-Above · Gunter

§ Orbital elements

Epoch: 2026-05-24T22:51:27.938016Z

Period
95.44 min
Inclination
53.2161°
Eccentricity
0.0001172
Mean motion
15.08839534 rev/d
Perigee alt
538.9 km
Apogee alt
540.6 km
Semi-major
6,917.9 km
B*
5.4767e-5
RAAN
346.7636°
Arg perigee
85.3508°
Mean anomaly
274.7618°
Rev number
23,493

§ Raw data

STARLINK-35321 51727U 22016P   26144.95240669  .00000584  00000+0  54767-4 0  99902 51727  53.2161 346.7636 0001172  85.3508 274.7618 15.08839534234939

JSON: /api/v1/satellites/51727 · /tle

For live sub-satellite position, see the globe view (requires WebGL).

§ Visibility from observer

Set your observer location to see the next 7 days of passes ≥ 10°. The values pass through the URL so the page stays shareable.

No JS? Fill the form by hand. The geolocation button needs JavaScript.